Location: Domicella
(40.8833°N, 14.5833°E)
Time: 20:22:48
(UTC+00:00)

Cosmos 1980 Rocket - Pass Details

Date: 15 May 2026
Orbit: 827 x 850 km, 71.0° (Epoch: 8 June)

Event Time Altitude Azimuth Distance (km) Brightness Sun altitude
Rises 19:37:50 0° 328° (NNW) 3,421 6.9 -14.2°
Reaches altitude 10° 19:40:27 10° 320° (NW) 2,479 6.0 -14.6°
Maximum altitude 19:45:37 37° 255° (WSW) 1,286 3.4 -15.3°
Drops below altitude 10° 19:50:45 10° 189° (S) 2,454 4.3 -16.0°
Enters shadow 19:51:17 - 187° (S) 2,636 4.4 -16.1°
